Location: Unspecified
(0.0000°N, 0.0000°E)
Time: 08:34:14
(UTC+00:00)

Transit 2A - All Passes

Search period start: 21 July 2024 00:00
Search period end: 31 July 2024 00:00
Orbit: 591 x 960 km, 66.7° (Epoch: 20 July)

Date Brightness Start Highest point End Pass type
(mag) Time Alt. Az. Time Alt. Az. Time Alt. Az.
21 Jul - 06:40:47 10° SSW 06:45:17 78° WNW 06:50:13 10° NNE daylight
21 Jul - 17:32:38 10° NNE 17:37:25 24° ENE 17:41:57 10° ESE daylight
21 Jul - 19:15:16 10° NW 19:20:20 28° WSW 19:25:06 10° SSW visible
22 Jul - 06:05:41 10° S 06:10:05 55° ESE 06:14:53 10° NNE daylight
22 Jul - 16:59:04 10° NE 17:02:06 14° ENE 17:05:02 10° E daylight
22 Jul - 18:39:20 10° NW 18:45:09 47° WSW 18:50:32 10° S visible
23 Jul - 05:30:59 10° S 05:34:55 29° ESE 05:39:07 10° NE visible
23 Jul - 07:15:37 10° W 07:17:49 13° WNW 07:20:05 10° NW daylight
23 Jul - 18:03:50 10° NNW 18:09:57 79° WSW 18:15:34 10° SSE daylight
24 Jul - 04:56:55 10° SSE 04:59:45 16° ESE 05:02:42 10° ENE visible
24 Jul - 06:38:47 10° WSW 06:42:29 24° WNW 06:46:27 10° NNW daylight
24 Jul - 17:28:40 10° N 17:34:43 63° ENE 17:40:17 10° SSE daylight
25 Jul - 06:02:52 10° SW 06:07:12 43° WNW 06:11:56 10° N daylight
25 Jul - 16:53:51 10° N 16:59:27 37° ENE 17:04:38 10° SE daylight
25 Jul - 18:38:29 10° WNW 18:42:14 17° WSW 18:45:48 10° SSW visible
26 Jul - 05:27:24 10° SSW 05:31:57 82° WNW 05:36:57 10° NNE visible
26 Jul - 16:19:29 10° NNE 16:24:07 23° ENE 16:28:31 10° ESE daylight
26 Jul - 18:01:58 10° NW 18:07:03 29° WSW 18:11:48 10° SSW daylight
27 Jul - 04:52:19 10° S 04:56:44 53° ESE 05:01:35 10° NNE visible
27 Jul - 15:46:02 10° NE 15:48:48 13° ENE 15:51:27 10° E daylight
27 Jul - 17:26:05 10° NW 17:31:52 48° WSW 17:37:12 10° S daylight
28 Jul - 04:17:38 10° SSE 04:21:34 28° ESE 04:25:46 10° NE visible
28 Jul - 06:02:00 10° W 06:04:27 14° WNW 06:07:02 10° NW daylight
28 Jul - 16:50:35 10° NNW 16:56:40 82° WSW 17:02:13 10° SSE daylight
29 Jul - 03:43:39 10° SE 03:46:24 16° ESE 03:49:16 10° ENE visible
29 Jul - 05:25:18 10° WSW 05:29:08 25° WNW 05:33:14 10° NNW visible
29 Jul - 16:15:26 10° N 16:21:25 60° ENE 16:26:53 10° SSE daylight
30 Jul - 04:49:25 10° SW 04:53:50 45° WNW 04:58:40 10° N visible
30 Jul - 15:40:39 10° N 15:46:08 36° ENE 15:51:13 10° SE daylight
30 Jul - 17:25:07 10° WNW 17:28:55 18° WSW 17:32:32 10° SSW daylight
